Location: Moscow
(38.3171°N, 79.0889°W)
Time: 23:54:15
(UTC+00:00)

Cosmos 1816 Rocket - Pass Details

Date: 07 November 2025
Orbit: 950 x 998 km, 82.9° (Epoch: 14 December)

Event Time Altitude Azimuth Distance (km) Brightness Sun altitude
Rises 22:49:19 0° 355° (N) 3,720 7.4 -8.1°
Reaches altitude 10° 22:51:53 10° 358° (N) 2,762 6.8 -8.6°
Maximum altitude 22:58:12 68° 82° (E) 1,055 4.5 -9.8°
Drops below altitude 10° 23:04:24 10° 165° (SSE) 2,715 6.8 -11.0°
Sets 23:06:54 0° 168° (SSE) 3,651 7.5 -11.5°
